Regional Weather Roundup
Issued by NWS

Home | Current Version | Previous Version | Graphics & Text | Print | Product List | Glossary On
Versions: 1 2 3 4 5 6 7 8 9 10 11 12 13 14 15 16 17 18 19 20 21 22 23 24 25 26 27 28 29 30 31 32 33 34 35 36 37 38 39 40 41 42 43 44 45 46 47 48 49 50
000
ASUS45 KCYS 301010
RWRWY

WYOMING REGIONAL WEATHER ROUNDUP
NATIONAL WEATHER SERVICE CHEYENNE WY
400 AM MDT MON MAR 30 2015

NOTE:  "FAIR" INDICATES FEW OR NO CLOUDS BELOW 12,000 FEET
WITH NO SIGNIFICANT WEATHER AND/OR OBSTRUCTIONS TO VISIBILITY.

WYZ001-301100-
YELLOWSTONE NATIONAL PARK

CITY           SKY/WX    TMP DP  RH WIND       PRES   REMARKS
LK YELLOWSTONE   N/A     24  18  77 CALM      30.25F
W YELLOWSTONE  NOT AVBL

$$
WYZ002>013-054>058-071-098>099-301100-
NORTHERN WYOMING

CITY           SKY/WX    TMP DP  RH WIND       PRES   REMARKS
JACKSON        FAIR      28  23  80 N5        30.24S WCI  23
CODY           FAIR      54  16  22 W10       30.11R
GREYBULL       FAIR      38  21  50 SE3       30.09S
WORLAND        FAIR      31  22  69 CALM      30.09S
SHERIDAN       FAIR      33  26  75 N5        30.05R WCI  29
BUFFALO        FAIR      50  18  28 CALM      30.06F
GILLETTE       FAIR      45  22  40 W12       30.03S
HULETT         FAIR      41  27  56 SW9       30.03S
NEWCASTLE      FAIR      36  21  55 N9        30.04S WCI  29

$$
WYZ014>020-022>026-101>103-301100-
CENTRAL WYOMING

CITY           SKY/WX    TMP DP  RH WIND       PRES   REMARKS
BIG PINEY      FAIR      24  15  68 NW8       30.25S WCI  15
PINEDALE       PTSUNNY   25  21  86 W7        30.26R WCI  17
DUBOIS         FAIR      32  18  55 NW14      30.19F WCI  22
LANDER         FAIR      38  16  40 W5        30.14S WCI  34
RIVERTON       FAIR      48  16  27 W17       30.13S
CASPER         FAIR      36  17  46 W12       30.12R WCI  28
DOUGLAS        FAIR      31  19  61 N9        30.09F WCI  23

$$
WYZ021-027>030-104>119-301100-
SOUTHERN WYOMING

CITY           SKY/WX    TMP DP  RH WIND       PRES   REMARKS
EVANSTON       FAIR      37  15  40 S8        30.27F WCI  31
FORT BRIDGER   FAIR      43  11  27 SW10      30.29S
ROCK SPRINGS   FAIR      36  14  40 SW6       30.25S WCI  31
DIXON          FAIR      28  19  68 E3        30.28F
RAWLINS        FAIR      40  12  32 SW9       30.21S WCI  34
SARATOGA       FAIR      32  16  51 SW6       30.23F WCI  26
LARAMIE        FAIR      42  12  29 W10       30.18S
CHEYENNE       FAIR      38  20  48 W8        30.12S WCI  32
TORRINGTON     FAIR      32  20  61 NW6       30.04F WCI  26
PINE BLUFFS    FAIR      32  21  64 S7        30.10F WCI  26

$$


USA.gov is the U.S. government's official web portal to all federal, state and local government web resources and services.